Weather History for Mora, MN

Change the Weather History Date:

Thursday, October 25, 2012

  Actual Average Record
Temperature  
Mean Temperature 38 °F -  
Max Temperature 44 °F 53 °F 82 °F (1989)
Min Temperature 33 °F 30 °F 16 °F (1933)
Degree Days  
Heating Degree Days 26    
Moisture  
Dew Point 32 °F    
Average Humidity 85    
Maximum Humidity 93    
Minimum Humidity 70    
Precipitation  
Precipitation 0.26 in - - ()
Sea Level Pressure  
Sea Level Pressure 29.87 in    
Wind  
Wind Speed 13 mph (NW)    
Max Wind Speed 21 mph    
Max Gust Speed 31 mph    
Visibility 8 miles    
Events Rain , Snow , Thunderstorm    
Averages and records for this station are not official NWS values.
T = Trace of Precipitation, MM = Missing Value Source: NWS Daily Summary

Daily Weather History Graph

Daily Weather History Graph

Search for Another Location

Airport:

Trip Planner

Search our weather history database for the weather conditions in past years. The results will help you decide how hot, cold, wet, or windy it might be!

Date:

Astronomy

Oct. 25, 2012 Rise Set
Actual Time 7:44 AM CDT 6:09 PM CDT
Civil Twilight 7:13 AM CDT 6:39 PM CDT
Nautical Twilight 6:38 AM CDT 7:14 PM CDT
Astronomical Twilight 6:04 AM CDT 7:49 PM CDT
Moon 4:05 PM CDT (10/25) 3:29 AM CDT (10/25)
Length of Visible Light 11h 26m
Length of Day
10h 24m
Waxing Gibbous, 84% of the Moon is Illuminated
Oct 25
Waxing Gibbous
Oct 29
Full
Nov 6
Last Quarter
Nov 13
New
Nov 20
First Quarter

Hourly Weather History & Observations

Time (CDT) Temp. Windchill Dew Point Humidity Pressure Visibility Wind Dir Wind Speed Gust Speed Precip Events Conditions
12:01 AM 44.6 °F 37.2 °F 41.0 °F 87% 29.82 in 10.0 mi NNW 17.3 mph 23.0 mph N/A   Light Drizzle
12:21 AM 44.6 °F 39.2 °F 41.0 °F 87% 29.80 in 10.0 mi North 10.4 mph 19.6 mph N/A   Overcast
12:41 AM 42.8 °F 36.6 °F 37.4 °F 81% 29.81 in 10.0 mi North 11.5 mph 20.7 mph N/A   Drizzle
1:01 AM 42.8 °F 37.5 °F 37.4 °F 81% 29.81 in 10.0 mi North 9.2 mph 17.3 mph N/A   Overcast
1:21 AM 42.8 °F 37.0 °F 37.4 °F 81% 29.80 in 10.0 mi North 10.4 mph 17.3 mph N/A   Overcast
1:41 AM 42.8 °F 36.6 °F 37.4 °F 81% 29.80 in 10.0 mi North 11.5 mph 21.9 mph N/A   Overcast
2:01 AM 41.0 °F 34.7 °F 35.6 °F 81% 29.80 in 10.0 mi NNW 10.4 mph - N/A   Overcast
2:41 AM 39.2 °F 31.6 °F 35.6 °F 87% 29.77 in 10.0 mi North 12.7 mph 21.9 mph 0.01 in   Light Drizzle
3:01 AM 41.0 °F 35.2 °F 35.6 °F 81% 29.77 in 10.0 mi North 9.2 mph 18.4 mph N/A   Overcast
3:21 AM 41.0 °F 35.2 °F 35.6 °F 81% 29.78 in 10.0 mi North 9.2 mph - N/A   Overcast
3:41 AM 41.0 °F 35.8 °F 33.8 °F 76% 29.79 in 10.0 mi North 8.1 mph - N/A   Overcast
4:01 AM 39.2 °F 31.6 °F 33.8 °F 81% 29.76 in 10.0 mi North 12.7 mph 20.7 mph N/A   Overcast
4:21 AM 39.2 °F 34.2 °F 33.8 °F 81% 29.75 in 7.0 mi North 6.9 mph 19.6 mph N/A   Overcast
4:41 AM 37.4 °F 30.3 °F 35.6 °F 93% 29.76 in 7.0 mi North 10.4 mph 16.1 mph N/A   Overcast
5:01 AM 37.4 °F 29.3 °F 35.6 °F 93% 29.75 in 5.0 mi North 12.7 mph 20.7 mph N/A Rain Rain
5:21 AM 37.4 °F 29.8 °F 35.6 °F 93% 29.73 in 4.0 mi North 11.5 mph 18.4 mph N/A Rain , Thunderstorm Light Thunderstorms and Rain
5:41 AM 37.4 °F 31.4 °F 35.6 °F 93% 29.74 in 4.0 mi North 8.1 mph - 0.01 in Rain , Thunderstorm Light Thunderstorms and Rain
6:01 AM 37.4 °F 28.9 °F 35.6 °F 93% 29.76 in 3.0 mi NNW 13.8 mph 18.4 mph 0.02 in Rain Rain
6:41 AM 37.4 °F 28.2 °F 33.8 °F 87% 29.79 in 4.0 mi NNW 16.1 mph 23.0 mph 0.13 in Rain Rain
7:01 AM 35.6 °F 25.5 °F 33.8 °F 93% 29.76 in 4.0 mi NNW 17.3 mph 23.0 mph 0.01 in Rain Rain
7:21 AM 35.6 °F 24.5 °F 33.8 °F 93% 29.75 in 5.0 mi NNW 20.7 mph 29.9 mph 0.04 in Rain Rain
7:41 AM 35.6 °F 24.8 °F 33.8 °F 93% 29.73 in 10.0 mi NNW 19.6 mph 25.3 mph 0.05 in Rain Rain
8:01 AM 35.6 °F 25.5 °F 33.8 °F 93% 29.76 in 10.0 mi NNW 17.3 mph 25.3 mph N/A   Light Drizzle
9:01 AM 33.8 °F 23.5 °F 32.0 °F 93% 29.75 in 3.0 mi NNW 16.1 mph 26.5 mph N/A Rain Light Rain
9:21 AM 33.8 °F 23.5 °F 32.0 °F 93% 29.76 in 5.0 mi NNW 16.1 mph 25.3 mph N/A Rain Light Rain
9:41 AM 33.8 °F 23.2 °F 32.0 °F 93% 29.77 in 5.0 mi NNW 17.3 mph 26.5 mph 0.01 in Rain Light Rain
10:01 AM 33.8 °F 22.5 °F 32.0 °F 93% 29.79 in 7.0 mi NNW 19.6 mph 25.3 mph 0.01 in Snow Light Snow
10:21 AM 35.6 °F 25.9 °F 33.8 °F 93% 29.79 in 10.0 mi NNW 16.1 mph 25.3 mph 0.01 in Snow Light Snow
11:01 AM 33.8 °F 22.8 °F 32.0 °F 93% 29.80 in 4.0 mi NNW 18.4 mph 27.6 mph 0.01 in Rain Light Rain
11:21 AM 33.8 °F 22.8 °F 32.0 °F 93% 29.82 in 2.5 mi NNW 18.4 mph 26.5 mph 0.02 in Rain Light Rain
11:41 AM 33.8 °F 23.2 °F 32.0 °F 93% 29.83 in 3.0 mi NNW 17.3 mph 25.3 mph 0.02 in Snow Light Snow
12:01 PM 33.8 °F 22.8 °F 32.0 °F 93% 29.84 in 2.0 mi NW 18.4 mph 31.1 mph 0.01 in Snow Light Snow
12:21 PM 33.8 °F 25.3 °F 32.0 °F 93% 29.84 in 2.5 mi NW 11.5 mph 24.2 mph 0.01 in   Overcast
12:41 PM 33.8 °F 24.8 °F 32.0 °F 93% 29.85 in 2.0 mi NNW 12.7 mph 18.4 mph 0.01 in Snow Light Snow
1:01 PM 33.8 °F 23.2 °F 32.0 °F 93% 29.85 in 1.2 mi NNW 17.3 mph 27.6 mph N/A Snow Light Snow
1:21 PM 33.8 °F 23.5 °F 32.0 °F 93% 29.85 in 1.8 mi NNW 16.1 mph 23.0 mph 0.01 in Snow Light Snow
2:01 PM 33.8 °F 24.3 °F 32.0 °F 93% 29.86 in 10.0 mi NNW 13.8 mph 20.7 mph N/A Snow Light Snow
2:21 PM 35.6 °F 28.6 °F 32.0 °F 87% 29.86 in 10.0 mi NW 9.2 mph - N/A   Overcast
2:41 PM 35.6 °F 30.7 °F 32.0 °F 87% 29.88 in 10.0 mi West 5.8 mph - N/A   Overcast
3:21 PM 35.6 °F 28.0 °F 32.0 °F 87% 29.89 in 10.0 mi WNW 10.4 mph 16.1 mph N/A   Overcast
3:41 PM 35.6 °F 27.5 °F 32.0 °F 87% 29.90 in 10.0 mi WNW 11.5 mph 17.3 mph N/A   Overcast
4:01 PM 35.6 °F 28.0 °F 32.0 °F 87% 29.91 in 10.0 mi WNW 10.4 mph - N/A   Overcast
4:41 PM 35.6 °F 28.0 °F 30.2 °F 81% 29.91 in 10.0 mi WNW 10.4 mph 17.3 mph N/A   Overcast
5:20 PM 35.6 °F 28.6 °F 30.2 °F 81% 29.93 in 10.0 mi WNW 9.2 mph 17.3 mph N/A   Overcast
5:41 PM 35.6 °F 27.5 °F 30.2 °F 81% 29.94 in 10.0 mi West 11.5 mph 18.4 mph N/A   Overcast
6:01 PM 35.6 °F 28.6 °F 30.2 °F 81% 29.96 in 10.0 mi West 9.2 mph - N/A   Overcast
6:21 PM 35.6 °F 27.5 °F 30.2 °F 81% 29.97 in 10.0 mi West 11.5 mph 17.3 mph N/A   Overcast
6:41 PM 35.6 °F 28.6 °F 30.2 °F 81% 29.99 in 10.0 mi West 9.2 mph 18.4 mph N/A   Overcast
7:01 PM 35.6 °F 27.5 °F 28.4 °F 75% 30.00 in 10.0 mi West 11.5 mph - N/A   Overcast
7:21 PM 35.6 °F 28.0 °F 28.4 °F 75% 30.01 in 10.0 mi West 10.4 mph - N/A   Overcast
7:40 PM 35.6 °F 28.0 °F 28.4 °F 75% 30.02 in 10.0 mi West 10.4 mph - N/A   Overcast
8:01 PM 35.6 °F 28.6 °F 28.4 °F 75% 30.03 in 10.0 mi West 9.2 mph - N/A   Overcast
8:21 PM 35.6 °F 29.2 °F 28.4 °F 75% 30.04 in 10.0 mi West 8.1 mph - N/A   Overcast
8:41 PM 35.6 °F 28.0 °F 28.4 °F 75% 30.04 in 10.0 mi West 10.4 mph - N/A   Overcast
9:01 PM 35.6 °F 29.2 °F 28.4 °F 75% 30.04 in 10.0 mi West 8.1 mph - N/A   Overcast
9:21 PM 35.6 °F 28.6 °F 28.4 °F 75% 30.05 in 10.0 mi West 9.2 mph - N/A   Overcast
9:41 PM 35.6 °F 28.0 °F 28.4 °F 75% 30.05 in 10.0 mi West 10.4 mph - N/A   Overcast
10:01 PM 35.6 °F 27.5 °F 28.4 °F 75% 30.06 in 10.0 mi West 11.5 mph - N/A   Overcast
10:21 PM 35.6 °F 28.0 °F 26.6 °F 70% 30.06 in 10.0 mi West 10.4 mph - N/A   Overcast
10:41 PM 35.6 °F 29.2 °F 26.6 °F 70% 30.07 in 10.0 mi West 8.1 mph - N/A   Overcast
11:01 PM 35.6 °F 29.2 °F 26.6 °F 70% 30.07 in 10.0 mi West 8.1 mph 16.1 mph N/A   Overcast
11:21 PM 35.6 °F 28.0 °F 26.6 °F 70% 30.08 in 10.0 mi West 10.4 mph - N/A   Overcast